User: anonymous   Login
Location: Unspecified
(0.0000°N, 0.0000°E)
Time: 14:06:26
(UTC+00:00)
Language:

TDRS 1 - Orbit

View from above orbital plane
View from above orbital plane
View from above satellite
View from above satellite

Ground track
Ground track

The orbit data is extracted from the following two-line orbital elements,

1 13969U 83026B   18114.39528644 -.00000257 +00000-0 +00000-0 0  9998
2 13969 013.2521 341.8085 0016491 192.7846 155.8959 00.98745842100977
Epoch (UTC): 24 April 2018 09:29:12
Eccentricity: 0.0016491
inclination: 13.2521°
perigee height: 36149 km
apogee height: 36290 km
right ascension of ascending node: 341.8085°
argument of perigee: 192.7846°
revolutions per day: 0.98745842
mean anomaly at epoch: 155.8959°
orbit number at epoch: 10097

The dashed part of the orbit path shows where the satellite is in the earth's shadow,  

DLR